Weather History for Phoenix, AZ

Change the Weather History Date:

Friday, March 8, 2013

  Actual Average Record
Temperature  
Mean Temperature 57 °F 64 °F  
Max Temperature 68 °F 75 °F 92 °F (1972)
Min Temperature 46 °F 52 °F 32 °F (1969)
Degree Days  
Heating Degree Days 8 3  
Month to date heating degree days 10 29  
Since 1 July heating degree days 857 862  
Cooling Degree Days 0 2  
Month to date cooling degree days 14 12  
Year to date cooling degree days 22 29  
Growing Degree Days 8 (Base 50)    
Moisture  
Dew Point 45 °F    
Average Humidity 53    
Maximum Humidity 86    
Minimum Humidity 19    
Precipitation  
Precipitation 0.84 in 0.03 in 0.84 in (2013)
Month to date precipitation 0.84 0.30  
Year to date precipitation 2.54 2.13  
Snow  
Snow 0.00 in - - ()
Month to date snowfall 0.0  
Year to date snowfall 0.0  
Since 1 July snowfall 0.0  
Snow Depth 0.00 in    
Sea Level Pressure  
Sea Level Pressure 29.82 in    
Wind  
Wind Speed 12 mph (South)    
Max Wind Speed 36 mph    
Max Gust Speed 41 mph    
Visibility 8 miles    
Events Rain , Hail , Thunderstorm    
T = Trace of Precipitation, MM = Missing Value Source: NWS Daily Summary

Daily Weather History Graph

Daily Weather History Graph

Search for Another Location

Airport:

Trip Planner

Search our weather history database for the weather conditions in past years. The results will help you decide how hot, cold, wet, or windy it might be!

Date:

Astronomy

Mar. 08, 2013 Rise Set
Actual Time 6:47 AM MST 6:30 PM MST
Civil Twilight 6:22 AM MST 6:55 PM MST
Nautical Twilight 5:53 AM MST 7:24 PM MST
Astronomical Twilight 5:24 AM MST 7:53 PM MST
Moon 4:26 AM MST (3/8) 3:36 PM MST (3/8)
Length of Visible Light 12h 33m
Length of Day
11h 43m
Waning Crescent, 11% of the Moon is Illuminated
Mar 8
Waning Crescent
Mar 11
New
Mar 19
First Quarter
Mar 27
Full
Apr 2
Last Quarter

Hourly Weather History & Observations

Time (MST) Temp. Windchill Dew Point Humidity Pressure Visibility Wind Dir Wind Speed Gust Speed Precip Events Conditions
12:51 AM 66.9 °F - 30.9 °F 26% 29.81 in 10.0 mi South 5.8 mph - N/A   Mostly Cloudy
1:51 AM 68.0 °F - 24.1 °F 19% 29.78 in 10.0 mi Calm Calm - N/A   Overcast
2:51 AM 66.9 °F - 26.1 °F 21% 29.78 in 10.0 mi SSE 10.4 mph - N/A   Overcast
3:51 AM 59.0 °F - 50.0 °F 72% 29.81 in 6.0 mi SSW 13.8 mph 32.2 mph 0.04 in Rain Rain
4:51 AM 57.9 °F - 48.9 °F 72% 29.77 in 5.0 mi South 19.6 mph 26.5 mph 0.20 in Rain Light Rain
5:51 AM 59.0 °F - 48.9 °F 69% 29.77 in 10.0 mi South 16.1 mph 23.0 mph 0.05 in Rain Light Rain
6:51 AM 57.0 °F - 52.0 °F 83% 29.77 in 9.0 mi ESE 16.1 mph - 0.07 in Rain Light Rain
7:51 AM 57.0 °F - 51.1 °F 81% 29.79 in 10.0 mi SSE 11.5 mph - 0.04 in   Overcast
8:51 AM 55.9 °F - 51.1 °F 84% 29.81 in 10.0 mi ESE 11.5 mph - 0.00 in   Overcast
9:51 AM 57.2 °F - 51.8 °F 82% 29.84 in 10.0 mi SE 11.5 mph - N/A   Mostly Cloudy
10:51 AM 63.0 °F - 52.0 °F 67% 29.80 in 10.0 mi South 13.8 mph 23.0 mph N/A   Mostly Cloudy
11:51 AM 66.0 °F - 50.0 °F 56% 29.76 in 10.0 mi South 17.3 mph 25.3 mph N/A   Mostly Cloudy
12:51 PM 64.9 °F - 46.0 °F 50% 29.73 in 10.0 mi SSW 15.0 mph 24.2 mph N/A Thunderstorm Thunderstorm
1:16 PM 62.6 °F - 46.4 °F 55% 29.76 in 10.0 mi South 17.3 mph 33.4 mph 0.00 in   Mostly Cloudy
1:45 PM 60.8 °F - 46.4 °F 59% 29.75 in 5.0 mi South 21.9 mph 27.6 mph 0.00 in Rain , Thunderstorm Thunderstorms and Rain
1:51 PM 57.9 °F - 50.0 °F 75% 29.72 in 7.0 mi South 17.3 mph 29.9 mph 0.04 in Rain , Thunderstorm Thunderstorms and Rain
2:05 PM 59.0 °F - 50.0 °F 72% 29.74 in 10.0 mi SSW 8.1 mph - 0.02 in   Mostly Cloudy
2:31 PM 53.6 °F - 44.6 °F 72% 29.80 in 10.0 mi WSW 21.9 mph 35.7 mph 0.02 in Thunderstorm Thunderstorm
2:37 PM 50.0 °F - 44.6 °F 82% 29.81 in 2.0 mi West 24.2 mph 35.7 mph 0.02 in Rain , Hail , Thunderstorm Thunderstorms with Hail
2:41 PM 46.4 °F 39.2 °F 42.8 °F 87% 29.81 in 1.2 mi West 18.4 mph 34.5 mph 0.18 in Rain , Hail , Thunderstorm Thunderstorms with Hail
2:44 PM 48.2 °F - 44.6 °F 87% 29.81 in 1.2 mi West 23.0 mph 34.5 mph 0.21 in Rain , Thunderstorm Thunderstorms and Rain
2:47 PM 50.0 °F - 46.4 °F 87% 29.82 in 2.0 mi West 24.2 mph 31.1 mph 0.22 in Rain , Thunderstorm Thunderstorms and Rain
2:51 PM 50.0 °F - 46.0 °F 86% 29.81 in 5.0 mi West 21.9 mph 31.1 mph 0.23 in Rain , Thunderstorm Thunderstorms and Rain
2:54 PM 50.0 °F - 46.4 °F 87% 29.84 in 6.0 mi West 28.8 mph 38.0 mph 0.00 in Rain Light Rain
3:51 PM 48.9 °F - 42.1 °F 77% 29.85 in 10.0 mi West 24.2 mph 36.8 mph 0.01 in Rain Light Rain
4:51 PM 50.0 °F - 41.0 °F 71% 29.85 in 10.0 mi NNW 8.1 mph - 0.01 in   Overcast
5:51 PM 51.1 °F - 41.0 °F 68% 29.86 in 10.0 mi ENE 6.9 mph - 0.00 in   Mostly Cloudy
6:51 PM 50.0 °F - 41.0 °F 71% 29.86 in 10.0 mi East 11.5 mph - N/A   Overcast
7:51 PM 48.9 °F - 42.1 °F 77% 29.89 in 8.0 mi East 6.9 mph - 0.00 in Rain Light Rain
8:38 PM 46.4 °F 43.5 °F 42.8 °F 87% 29.93 in 6.0 mi WNW 5.8 mph 25.3 mph 0.13 in Rain Rain
8:51 PM 46.9 °F - 43.0 °F 86% 29.91 in 6.0 mi SE 4.6 mph - 0.13 in   Overcast
9:27 PM 48.2 °F - 42.8 °F 82% 29.93 in 10.0 mi North 11.5 mph - 0.00 in   Overcast
9:51 PM 48.0 °F - 42.1 °F 80% 29.94 in 10.0 mi NE 8.1 mph - 0.00 in Rain Light Rain
10:51 PM 46.9 °F - 42.1 °F 83% 29.94 in 10.0 mi East 11.5 mph - 0.00 in   Mostly Cloudy
11:51 PM 46.9 °F - 42.1 °F 83% 29.94 in 10.0 mi East 11.5 mph - 0.02 in   Overcast